TimePST,TemperatureF,Dew PointF,Humidity,Sea Level PressureIn,VisibilityMPH,Wind Direction,Wind SpeedMPH,Gust SpeedMPH,PrecipitationIn,Events,Conditions,WindDirDegrees,DateUTC
12:56 AM,53.1,33.1,47,30.04,10.0,West,5.8,-,N/A,,Clear,260,2013-12-18 08:56:00
1:56 AM,52.0,28.9,41,30.03,10.0,WSW,4.6,-,N/A,,Clear,240,2013-12-18 09:56:00
2:56 AM,51.1,30.9,46,30.02,10.0,West,6.9,-,N/A,,Clear,260,2013-12-18 10:56:00
3:56 AM,52.0,32.0,47,30.01,10.0,WSW,9.2,-,N/A,,Clear,240,2013-12-18 11:56:00
4:56 AM,52.0,34.0,50,29.99,10.0,WSW,4.6,-,N/A,,Clear,240,2013-12-18 12:56:00
5:56 AM,52.0,28.9,41,30.01,10.0,West,8.1,-,N/A,,Mostly Cloudy,260,2013-12-18 13:56:00
6:56 AM,50.0,30.9,48,30.01,10.0,Calm,Calm,-,N/A,,Mostly Cloudy,0,2013-12-18 14:56:00
7:56 AM,55.0,32.0,42,30.01,10.0,Calm,Calm,-,N/A,,Mostly Cloudy,0,2013-12-18 15:56:00
8:56 AM,59.0,37.9,46,30.03,10.0,Calm,Calm,-,N/A,,Mostly Cloudy,0,2013-12-18 16:56:00
9:56 AM,66.9,34.0,30,30.01,10.0,Calm,Calm,-,N/A,,Mostly Cloudy,0,2013-12-18 17:56:00
10:56 AM,71.1,32.0,24,29.98,10.0,Calm,Calm,-,N/A,,Mostly Cloudy,0,2013-12-18 18:56:00
11:56 AM,73.0,28.9,20,29.94,10.0,South,3.5,-,N/A,,Mostly Cloudy,180,2013-12-18 19:56:00
12:56 PM,73.9,27.0,18,29.91,10.0,South,3.5,-,N/A,,Mostly Cloudy,190,2013-12-18 20:56:00
1:56 PM,75.0,28.9,18,29.88,10.0,SE,3.5,-,N/A,,Mostly Cloudy,140,2013-12-18 21:56:00
2:56 PM,75.0,33.1,22,29.85,10.0,ESE,6.9,-,N/A,,Mostly Cloudy,120,2013-12-18 22:56:00
3:56 PM,72.0,39.0,30,29.84,10.0,SE,3.5,-,N/A,,Mostly Cloudy,130,2013-12-18 23:56:00
4:56 PM,66.0,39.0,37,29.84,10.0,Calm,Calm,-,N/A,,Scattered Clouds,0,2013-12-19 00:56:00
5:56 PM,62.1,39.9,44,29.84,10.0,Calm,Calm,-,N/A,,Scattered Clouds,0,2013-12-19 01:56:00
6:56 PM,57.0,39.0,51,29.83,8.0,South,4.6,-,N/A,,Scattered Clouds,190,2013-12-19 02:56:00
7:56 PM,55.0,37.0,51,29.83,10.0,Variable,4.6,-,N/A,,Partly Cloudy,0,2013-12-19 03:56:00
8:56 PM,51.1,35.1,54,29.81,9.0,ENE,6.9,-,N/A,,Partly Cloudy,70,2013-12-19 04:56:00
9:56 PM,48.9,37.0,64,29.81,10.0,ESE,5.8,-,N/A,,Partly Cloudy,110,2013-12-19 05:56:00
10:56 PM,50.0,35.1,57,29.81,8.0,Variable,5.8,-,N/A,,Partly Cloudy,0,2013-12-19 06:56:00
11:56 PM,46.9,35.1,63,29.80,9.0,NE,5.8,-,N/A,,Clear,40,2013-12-19 07:56:00